Location: Binningen
(47.7924°N, 8.7261°E)
Time: 03:53:14
(UTC+00:00)

Cosmos 1733 Rocket - Pass Details

Date: 01 October 2021
Orbit: 604 x 627 km, 82.5° (Epoch: 16 October)

Event Time Altitude Azimuth Distance (km) Brightness Sun altitude
Rises 04:46:04 0° 339° (NNW) 2,896 6.3 -7.2°
Reaches altitude 10° 04:48:35 10° 326° (NNW) 1,990 5.4 -6.8°
Maximum altitude 04:52:10 25° 272° (W) 1,268 4.1 -6.2°
Drops below altitude 10° 04:55:45 10° 217° (SW) 1,988 5.3 -5.6°
Sets 04:58:16 0° 204° (SSW) 2,893 6.2 -5.2°
